�������l�o���
Date,Time,MP-1(��Sv/h),MP-2(��Sv/h),MP-3(��Sv/h),MP-4(��Sv/h),MP-5(��Sv/h),MP-6(��Sv/h),MP-7(��Sv/h),MP-8(��Sv/h),����,����(m/s),���J
2017/10/11,00:00,0.940,1.487,0.963,1.772,1.231,0.509,0.932,0.858,�k�k��,4.9,��
2017/10/11,00:10,0.941,1.487,0.964,1.772,1.233,0.508,0.931,0.857,�k�k��,5.0,��
2017/10/11,00:20,0.938,1.490,0.963,1.770,1.231,0.509,0.931,0.858,�k�k��,5.4,��
2017/10/11,00:30,0.939,1.490,0.964,1.773,1.233,0.509,0.930,0.860,�k�k��,5.6,��
2017/10/11,00:40,0.939,1.488,0.963,1.773,1.231,0.506,0.929,0.860,�k�k��,5.6,��
2017/10/11,00:50,0.940,1.488,0.965,1.772,1.232,0.507,0.931,0.858,�k�k��,5.1,��
2017/10/11,01:00,0.939,1.489,0.964,1.774,1.231,0.508,0.928,0.859,�k�k��,5.7,��
2017/10/11,01:10,0.940,1.488,0.965,1.775,1.231,0.508,0.931,0.860,�k�k��,6.0,��
2017/10/11,01:20,0.940,1.490,0.964,1.771,1.229,0.508,0.927,0.858,�k�k��,6.2,��
2017/10/11,01:30,0.939,1.488,0.962,1.773,1.231,0.507,0.928,0.858,�k�k��,5.7,��
2017/10/11,01:40,0.938,1.487,0.963,1.772,1.231,0.508,0.929,0.856,�k�k��,6.1,��
2017/10/11,01:50,0.938,1.489,0.963,1.770,1.228,0.506,0.928,0.857,�k,4.8,��
2017/10/11,02:00,0.940,1.487,0.961,1.770,1.232,0.507,0.929,0.859,�k�k��,4.2,��
2017/10/11,02:10,0.936,1.488,0.963,1.773,1.230,0.506,0.929,0.859,�k,3.8,��
2017/10/11,02:20,0.937,1.489,0.964,1.771,1.229,0.507,0.930,0.858,�k�k��,4.9,��
2017/10/11,02:30,0.936,1.488,0.960,1.770,1.229,0.504,0.927,0.858,�k�k��,5.1,��
2017/10/11,02:40,0.938,1.487,0.960,1.774,1.232,0.507,0.928,0.858,�k�k��,5.2,�L
2017/10/11,02:50,0.934,1.487,0.961,1.770,1.231,0.504,0.929,0.857,�k�k��,4.3,�L
2017/10/11,03:00,0.935,1.485,0.960,1.774,1.228,0.506,0.928,0.858,�k��,4.5,�L
2017/10/11,03:10,0.935,1.487,0.962,1.770,1.229,0.506,0.930,0.856,�k�k��,5.7,�L
2017/10/11,03:20,0.936,1.487,0.963,1.769,1.230,0.506,0.929,0.857,�k�k��,6.0,�L
2017/10/11,03:30,0.935,1.487,0.961,1.770,1.228,0.505,0.928,0.857,�k�k��,5.1,�L
2017/10/11,03:40,0.933,1.488,0.961,1.767,1.227,0.506,0.928,0.857,�k�k��,6.0,�L
2017/10/11,03:50,0.934,1.483,0.959,1.773,1.227,0.504,0.930,0.859,�k��,5.1,�L
2017/10/11,04:00,0.933,1.488,0.960,1.769,1.229,0.507,0.927,0.857,�k��,5.0,�L
2017/10/11,04:10,0.934,1.486,0.963,1.769,1.229,0.508,0.926,0.857,�k��,4.3,�L
2017/10/11,04:20,0.934,1.484,0.963,1.766,1.228,0.508,0.929,0.858,�k�k��,3.5,�L
2017/10/11,04:30,0.933,1.485,0.961,1.770,1.229,0.510,0.926,0.858,�k�k��,3.8,�L
2017/10/11,04:40,0.933,1.479,0.962,1.769,1.225,0.509,0.927,0.858,�k�k��,3.8,�L
2017/10/11,04:50,0.935,1.477,0.960,1.767,1.222,0.509,0.926,0.858,�k��,4.5,�L
2017/10/11,05:00,0.934,1.473,0.960,1.765,1.219,0.508,0.928,0.860,�k��,4.7,�L
2017/10/11,05:10,0.931,1.471,0.962,1.763,1.219,0.508,0.927,0.857,�k��,4.9,�L
2017/10/11,05:20,0.934,1.472,0.959,1.767,1.216,0.509,0.928,0.858,���k��,4.6,�L
2017/10/11,05:30,0.931,1.470,0.958,1.765,1.218,0.507,0.924,0.857,�k��,4.5,�L
2017/10/11,05:40,0.931,1.469,0.956,1.762,1.219,0.509,0.927,0.854,�k��,4.9,�L
2017/10/11,05:50,0.931,1.466,0.956,1.762,1.215,0.508,0.926,0.857,�k��,5.3,�L
2017/10/11,06:00,0.930,1.468,0.954,1.758,1.213,0.506,0.925,0.857,�k��,4.9,�L
2017/10/11,06:10,0.931,1.468,0.955,1.759,1.213,0.507,0.926,0.855,�k��,4.0,�L
2017/10/11,06:20,0.931,1.467,0.954,1.758,1.216,0.506,0.924,0.857,�k��,4.6,�L
2017/10/11,06:30,0.931,1.469,0.954,1.759,1.213,0.507,0.925,0.855,�k��,4.6,�L
2017/10/11,06:40,0.929,1.467,0.954,1.756,1.211,0.507,0.925,0.854,�k��,5.1,�L
2017/10/11,06:50,0.929,1.466,0.954,1.755,1.212,0.507,0.924,0.856,�k�k��,5.8,�L
2017/10/11,07:00,0.929,1.460,0.953,1.756,1.211,0.508,0.924,0.856,�k�k��,6.1,�L
2017/10/11,07:10,0.929,1.460,0.953,1.757,1.210,0.509,0.923,0.855,�k�k��,5.9,�L
2017/10/11,07:20,0.929,1.456,0.953,1.750,1.207,0.508,0.923,0.855,�k�k��,4.8,�L
2017/10/11,07:30,0.928,1.455,0.954,1.750,1.202,0.509,0.922,0.857,�k�k��,5.3,�L
2017/10/11,07:40,0.927,1.452,0.952,1.747,1.204,0.508,0.922,0.854,�k�k��,4.8,�L
2017/10/11,07:50,0.928,1.450,0.951,1.742,1.202,0.508,0.920,0.853,�k�k��,5.1,�L
2017/10/11,08:00,0.926,1.448,0.952,1.740,1.201,0.506,0.919,0.852,�k�k��,4.2,�L
2017/10/11,08:10,0.922,1.446,0.947,1.739,1.201,0.506,0.919,0.855,�k�k��,4.5,�L
2017/10/11,08:20,0.921,1.449,0.950,1.738,1.197,0.505,0.920,0.855,�k�k��,4.1,�L
2017/10/11,08:30,0.923,1.445,0.948,1.737,1.198,0.505,0.920,0.853,�k�k��,4.3,�L
2017/10/11,08:40,0.923,1.443,0.947,1.735,1.200,0.506,0.922,0.853,�k�k��,5.3,�L
2017/10/11,08:50,0.923,1.444,0.946,1.734,1.197,0.506,0.918,0.854,�k�k��,4.3,�L
2017/10/11,09:00,0.923,1.442,0.943,1.733,1.196,0.504,0.920,0.851,�k�k��,4.2,�L
2017/10/11,09:10,0.924,1.441,0.944,1.733,1.195,0.503,0.919,0.852,�k��,3.6,�L
2017/10/11,09:20,0.924,1.440,0.943,1.731,1.196,0.505,0.919,0.852,�k�k��,4.4,�L
2017/10/11,09:30,0.923,1.439,0.945,1.731,1.195,0.505,0.920,0.852,�k�k��,4.0,�L
2017/10/11,09:40,0.923,1.438,0.940,1.730,1.194,0.505,0.920,0.852,�k,4.1,�L
2017/10/11,09:50,0.923,1.437,0.941,1.733,1.196,0.504,0.918,0.852,�k�k��,4.1,�L
2017/10/11,10:00,0.921,1.440,0.941,1.729,1.193,0.503,0.915,0.852,�k�k��,3.0,�L
2017/10/11,10:10,0.922,1.434,0.940,1.732,1.191,0.503,0.916,0.853,�k,3.0,�L
2017/10/11,10:20,0.925,1.437,0.942,1.730,1.192,0.499,0.917,0.852,�k�k��,3.0,�L
2017/10/11,10:30,0.926,1.435,0.940,1.727,1.193,0.502,0.917,0.851,�k,3.3,�L
2017/10/11,10:40,0.914,1.437,0.941,1.726,1.196,0.502,0.916,0.851,�k�k��,3.3,�L
2017/10/11,10:50,0.921,1.440,0.938,1.726,1.194,0.500,0.917,0.851,�k�k��,3.2,�L
2017/10/11,11:00,0.921,1.438,0.938,1.728,1.195,0.502,0.917,0.851,�k�k��,2.8,��
2017/10/11,11:10,0.921,1.440,0.940,1.729,1.193,0.502,0.919,0.852,�k�k��,3.4,�L
2017/10/11,11:20,0.917,1.439,0.937,1.727,1.195,0.500,0.917,0.852,�k�k��,2.6,�L
2017/10/11,11:30,0.918,1.440,0.940,1.727,1.192,0.501,0.919,0.852,�k�k��,2.0,�L
2017/10/11,11:40,0.920,1.435,0.938,1.729,1.195,0.501,0.919,0.853,�k�k��,3.2,�L
2017/10/11,11:50,0.917,1.440,0.938,1.729,1.194,0.499,0.919,0.850,�k�k��,3.6,�L
2017/10/11,12:00,0.920,1.439,0.938,1.729,1.195,0.500,0.918,0.850,�k,3.3,�L
2017/10/11,12:10,0.917,1.439,0.939,1.730,1.194,0.501,0.920,0.852,�k,2.6,�L
2017/10/11,12:20,0.917,1.440,0.939,1.730,1.196,0.501,0.920,0.850,�k�k��,3.3,�L
2017/10/11,12:30,0.918,1.443,0.937,1.728,1.195,0.501,0.920,0.851,�k,3.2,�L
2017/10/11,12:40,0.917,1.441,0.937,1.730,1.194,0.499,0.920,0.851,�k,3.3,�L
2017/10/11,12:50,0.920,1.443,0.939,1.728,1.197,0.501,0.919,0.850,�k,3.2,�L
2017/10/11,13:00,0.920,1.443,0.939,1.733,1.195,0.500,0.920,0.852,�k,4.0,�L
2017/10/11,13:10,0.919,1.441,0.940,1.728,1.197,0.498,0.920,0.852,�k,3.6,��
2017/10/11,13:20,0.919,1.437,0.939,1.730,1.198,0.500,0.919,0.852,�k,2.9,�L
2017/10/11,13:30,0.921,1.434,0.939,1.732,1.195,0.499,0.921,0.852,�k,2.6,�L
2017/10/11,13:40,0.918,1.431,0.938,1.731,1.196,0.500,0.919,0.851,�k,2.3,��
2017/10/11,13:50,0.922,1.434,0.940,1.732,1.197,0.501,0.919,0.852,�k,2.0,�L
2017/10/11,14:00,0.920,1.435,0.940,1.731,1.197,0.498,0.919,0.853,�k,1.7,�L
2017/10/11,14:10,0.920,1.444,0.941,1.733,1.199,0.499,0.920,0.852,�k,1.4,��
2017/10/11,14:20,0.921,1.441,0.940,1.733,1.196,0.500,0.918,0.851,�k,1.7,��
2017/10/11,14:30,0.922,1.443,0.938,1.732,1.195,0.499,0.919,0.855,�k�k��,2.3,��
2017/10/11,14:40,0.922,1.439,0.939,1.733,1.195,0.499,0.921,0.852,�k�k��,2.0,��
2017/10/11,14:50,0.923,1.444,0.941,1.735,1.197,0.502,0.919,0.851,�k�k��,2.2,��
2017/10/11,15:00,0.923,1.441,0.941,1.733,1.197,0.500,0.920,0.852,�k,1.7,��
2017/10/11,15:10,0.922,1.444,0.939,1.731,1.198,0.500,0.919,0.853,�k,1.9,��
2017/10/11,15:20,0.924,1.444,0.939,1.734,1.198,0.501,0.921,0.852,�k,1.5,��
2017/10/11,15:30,0.921,1.442,0.942,1.733,1.198,0.501,0.921,0.853,�k,1.5,��
2017/10/11,15:40,0.922,1.447,0.942,1.735,1.199,0.500,0.920,0.852,�k�k��,1.5,��
2017/10/11,15:50,0.923,1.443,0.942,1.734,1.198,0.502,0.920,0.853,�k��,2.2,��
2017/10/11,16:00,0.924,1.449,0.939,1.735,1.198,0.501,0.922,0.850,���k��,2.2,��
2017/10/11,16:10,0.924,1.444,0.942,1.735,1.197,0.501,0.920,0.853,���k��,1.9,��
2017/10/11,16:20,0.921,1.446,0.941,1.735,1.197,0.501,0.921,0.853,���k��,2.0,��
2017/10/11,16:30,0.923,1.448,0.941,1.735,1.199,0.501,0.922,0.852,��,1.5,��
2017/10/11,16:40,0.923,1.446,0.941,1.735,1.198,0.500,0.921,0.852,��,1.2,��
2017/10/11,16:50,0.922,1.448,0.942,1.734,1.199,0.501,0.921,0.855,�쓌,1.2,��
2017/10/11,17:00,0.922,1.450,0.939,1.736,1.201,0.499,0.920,0.851,���쓌,1.4,��
2017/10/11,17:10,0.923,1.447,0.942,1.735,1.198,0.500,0.920,0.855,��,1.4,��
2017/10/11,17:20,0.925,1.450,0.942,1.737,1.198,0.501,0.919,0.853,���쓌,0.9,��
2017/10/11,17:30,0.925,1.446,0.940,1.734,1.199,0.501,0.921,0.855,�k�k��,0.8,��
2017/10/11,17:40,0.923,1.446,0.944,1.733,1.200,0.500,0.920,0.854,�k��,0.6,��
2017/10/11,17:50,0.924,1.449,0.939,1.734,1.201,0.501,0.921,0.854,���k��,1.2,��
2017/10/11,18:00,0.923,1.446,0.940,1.737,1.200,0.501,0.922,0.854,�k��,0.9,��
2017/10/11,18:10,0.920,1.449,0.942,1.734,1.199,0.501,0.922,0.852,�k��,0.9,��
2017/10/11,18:20,0.917,1.448,0.940,1.738,1.198,0.502,0.921,0.854,�k��,1.2,�L
2017/10/11,18:30,0.917,1.449,0.942,1.736,1.199,0.501,0.921,0.853,�k�k��,1.2,�L
2017/10/11,18:40,0.922,1.449,0.940,1.734,1.198,0.502,0.923,0.853,���k��,1.2,��
2017/10/11,18:50,0.921,1.448,0.941,1.739,1.198,0.502,0.922,0.853,��,0.8,��
2017/10/11,19:00,0.924,1.446,0.942,1.735,1.199,0.500,0.922,0.852,��,0.6,��
2017/10/11,19:10,0.922,1.448,0.941,1.736,1.199,0.501,0.922,0.852,���쐼,0.6,��
2017/10/11,19:20,0.925,1.449,0.942,1.736,1.204,0.504,0.922,0.854,���쐼,0.6,��
2017/10/11,19:30,0.920,1.448,0.941,1.735,1.199,0.502,0.921,0.854,-,CALM,��
2017/10/11,19:40,0.921,1.447,0.941,1.736,1.201,0.502,0.922,0.855,��쐼,0.6,��
2017/10/11,19:50,0.924,1.448,0.942,1.736,1.202,0.501,0.922,0.854,��,0.9,��
2017/10/11,20:00,0.922,1.448,0.942,1.737,1.203,0.501,0.922,0.853,��,0.9,��
2017/10/11,20:10,0.923,1.450,0.942,1.736,1.203,0.503,0.921,0.854,��,2.3,��
2017/10/11,20:20,0.921,1.449,0.942,1.737,1.199,0.500,0.923,0.853,��,1.2,��
2017/10/11,20:30,0.922,1.450,0.942,1.735,1.202,0.500,0.921,0.853,��쐼,0.8,��
2017/10/11,20:40,0.924,1.450,0.942,1.737,1.200,0.501,0.921,0.853,�쐼,0.9,��
2017/10/11,20:50,0.924,1.449,0.944,1.739,1.199,0.501,0.922,0.852,��쐼,0.9,��
2017/10/11,21:00,0.921,1.450,0.942,1.734,1.201,0.501,0.922,0.853,��,2.3,��
2017/10/11,21:10,0.924,1.448,0.942,1.737,1.203,0.502,0.922,0.853,��쐼,2.5,��
2017/10/11,21:20,0.924,1.450,0.942,1.736,1.200,0.503,0.923,0.852,��쐼,2.6,��
2017/10/11,21:30,0.922,1.449,0.942,1.738,1.201,0.503,0.923,0.853,��쐼,2.8,��
2017/10/11,21:40,0.923,1.450,0.942,1.739,1.202,0.500,0.924,0.855,��,3.1,��
2017/10/11,21:50,0.923,1.448,0.944,1.738,1.203,0.501,0.923,0.853,��,3.8,��
2017/10/11,22:00,0.923,1.452,0.944,1.737,1.202,0.501,0.925,0.854,��,4.5,��
2017/10/11,22:10,0.922,1.452,0.944,1.739,1.202,0.503,0.923,0.853,��,3.7,��
2017/10/11,22:20,0.924,1.450,0.943,1.738,1.201,0.502,0.922,0.853,��,3.2,��
2017/10/11,22:30,0.924,1.450,0.943,1.737,1.200,0.502,0.922,0.855,��,4.3,��
2017/10/11,22:40,0.923,1.449,0.943,1.735,1.201,0.501,0.923,0.855,��,4.7,��
2017/10/11,22:50,0.924,1.449,0.945,1.737,1.202,0.501,0.923,0.854,��,4.9,��
2017/10/11,23:00,0.923,1.451,0.945,1.738,1.200,0.503,0.923,0.853,��,4.7,��
2017/10/11,23:10,0.924,1.450,0.942,1.736,1.202,0.503,0.923,0.855,��,3.6,��
2017/10/11,23:20,0.924,1.450,0.944,1.739,1.202,0.502,0.923,0.854,��,3.6,��
2017/10/11,23:30,0.924,1.451,0.943,1.739,1.202,0.501,0.922,0.855,��,4.9,��
2017/10/11,23:40,0.924,1.451,0.943,1.740,1.203,0.502,0.923,0.854,��,4.5,��
2017/10/11,23:50,0.924,1.451,0.946,1.740,1.203,0.503,0.923,0.855,��쓌,5.0,��
